DELTA 1 DEB

基本信息
目录编号:
10728
目录名称:
DELTA 1 DEB
国际标识:
1975-027C
轨道中心:
EARTH
物体状态:
在轨
发射日期:
1975-04-09 UTC
轨道信息
数据来源: 国际轨道数据
星历时间: 2026-07-14T03:27:51+0800
半长轴: 7185.57km
偏心率: 0.0033236
轨道倾角: 115.203°
近地点辐角: 134.479°
升交点赤经: 277.845°
平近点角: 225.901°
近地点: 783.551km
远地点: 831.315km
周期: 101.030分钟
每日圈数: 14.253154
详细信息
发射场:
AFWTR
轨道高度:
LEO
数据来源:
AOE Integration Group
参考系:
TEME
时间系统:
UTC
历元类型:
SGP4
2D轨道图
3D轨道图
轨道高度分析图
轨道倾角分析图
轨道综合分析图
查看轨道综合分析图